Weather History for Hill City, KS

Change the Weather History Date:

Thursday, May 2, 2013

  Actual Average Record
Temperature  
Mean Temperature 44 °F 58 °F  
Max Temperature 55 °F 71 °F 99 °F (1965)
Min Temperature 32 °F 44 °F 24 °F (1967)
Degree Days  
Heating Degree Days 22    
Moisture  
Dew Point 30 °F    
Average Humidity 74    
Maximum Humidity 100    
Minimum Humidity 29    
Precipitation  
Precipitation 0.00 in 0.11 in 2.05 in (2006)
Month to date precipitation 0.14 0.22  
Year to date precipitation 2.36 4.94  
Sea Level Pressure  
Sea Level Pressure 30.57 in    
Wind  
Wind Speed 17 mph (North)    
Max Wind Speed 24 mph    
Max Gust Speed 34 mph    
Visibility 7 miles    
Events Snow    
T = Trace of Precipitation, MM = Missing Value Source: NWS Daily Summary

Daily Weather History Graph

Daily Weather History Graph

Search for Another Location

Airport:

Trip Planner

Search our weather history database for the weather conditions in past years. The results will help you decide how hot, cold, wet, or windy it might be!

Date:

Astronomy

May. 02, 2013 Rise Set
Actual Time 6:39 AM CDT 8:34 PM CDT
Civil Twilight 6:09 AM CDT 9:03 PM CDT
Nautical Twilight 5:34 AM CDT 9:38 PM CDT
Astronomical Twilight 4:56 AM CDT 10:17 PM CDT
Moon 2:24 AM CDT (5/2) 1:27 PM CDT (5/2)
Length of Visible Light 14h 53m
Length of Day
13h 55m
Waning Gibbous, 47% of the Moon is Illuminated
May 2
Waning Gibbous
May 9
New
May 17
First Quarter
May 24
Full
May 31
Last Quarter

Hourly Weather History & Observations

Time (CDT) Temp. Windchill Dew Point Humidity Pressure Visibility Wind Dir Wind Speed Gust Speed Precip Events Conditions
12:43 AM 33.8 °F 22.2 °F 32.0 °F 93% 30.49 in 1.5 mi North 20.7 mph 28.8 mph 0.01 in Snow Light Snow
12:53 AM 33.1 °F 21.5 °F 32.0 °F 96% 30.55 in 1.2 mi North 19.6 mph 32.2 mph 0.01 in Snow Light Snow
1:14 AM 33.8 °F 22.5 °F 32.0 °F 93% 30.52 in 1.5 mi North 19.6 mph - 0.01 in Snow Light Snow
1:24 AM 33.8 °F 23.2 °F 32.0 °F 93% 30.52 in 1.2 mi North 17.3 mph 24.2 mph 0.01 in Snow Light Snow
1:37 AM 33.8 °F 23.9 °F 32.0 °F 93% 30.52 in 1.2 mi North 15.0 mph 21.9 mph 0.02 in Snow Light Snow
1:53 AM 33.1 °F 23.0 °F 33.1 °F 100% 30.57 in 2.0 mi North 15.0 mph - 0.02 in Snow Light Snow
2:00 AM 33.8 °F 24.8 °F 33.8 °F 100% 30.52 in 3.0 mi North 12.7 mph - 0.00 in Snow Light Snow
2:45 AM 33.8 °F 22.8 °F 32.0 °F 93% 30.54 in 2.0 mi North 18.4 mph 26.5 mph 0.02 in Snow Light Snow
2:53 AM 33.1 °F 23.0 °F 32.0 °F 96% 30.60 in 1.8 mi North 15.0 mph 25.3 mph 0.02 in Snow Light Snow
3:16 AM 33.8 °F 21.9 °F 32.0 °F 93% 30.55 in 1.8 mi North 21.9 mph - 0.01 in Snow Light Snow
3:28 AM 33.8 °F 21.3 °F 32.0 °F 93% 30.56 in 1.5 mi North 24.2 mph 32.2 mph 0.01 in Snow Light Snow
3:38 AM 33.8 °F 23.9 °F 32.0 °F 93% 30.55 in 2.0 mi North 15.0 mph 24.2 mph 0.01 in Snow Light Snow
3:53 AM 33.1 °F 21.5 °F 33.1 °F 100% 30.60 in 6.0 mi North 19.6 mph 23.0 mph 0.01 in Snow Light Snow
4:03 AM 33.8 °F 21.9 °F 32.0 °F 93% 30.54 in 8.0 mi North 21.9 mph 28.8 mph 0.00 in Snow Light Snow
4:53 AM 34.0 °F 24.2 °F 32.0 °F 92% 30.63 in 10.0 mi North 15.0 mph - 0.00 in   Overcast
5:53 AM 35.1 °F 24.8 °F 30.0 °F 82% 30.62 in 10.0 mi North 17.3 mph 27.6 mph N/A   Overcast
6:53 AM 35.1 °F 24.8 °F 30.0 °F 82% 30.66 in 10.0 mi North 17.3 mph - 0.01 in   Overcast
7:53 AM 35.1 °F 26.9 °F 32.0 °F 89% 30.67 in 10.0 mi NNW 11.5 mph - N/A   Overcast
8:53 AM 36.0 °F 29.0 °F 32.0 °F 86% 30.69 in 10.0 mi NNW 9.2 mph - N/A   Overcast
9:53 AM 39.0 °F 31.0 °F 33.1 °F 79% 30.68 in 10.0 mi NNW 13.8 mph - N/A   Overcast
10:53 AM 44.1 °F 36.5 °F 34.0 °F 68% 30.67 in 10.0 mi North 17.3 mph 24.2 mph N/A   Overcast
12:53 PM 50.0 °F - 28.0 °F 43% 30.65 in 10.0 mi North 17.3 mph 27.6 mph N/A   Scattered Clouds
1:53 PM 51.1 °F - 26.1 °F 38% 30.63 in 10.0 mi North 20.7 mph 26.5 mph N/A   Mostly Cloudy
2:53 PM 53.1 °F - 26.1 °F 35% 30.60 in 10.0 mi NNW 18.4 mph 34.5 mph N/A   Scattered Clouds
3:53 PM 54.0 °F - 23.0 °F 30% 30.57 in 10.0 mi NNW 18.4 mph 26.5 mph N/A   Scattered Clouds
4:53 PM 52.0 °F - 21.9 °F 31% 30.56 in 10.0 mi North 16.1 mph 25.3 mph N/A   Overcast
5:53 PM 54.0 °F - 21.9 °F 29% 30.53 in 10.0 mi North 17.3 mph 26.5 mph N/A   Overcast
6:53 PM 54.0 °F - 21.9 °F 29% 30.51 in 10.0 mi NNE 16.1 mph - N/A   Mostly Cloudy
7:53 PM 48.9 °F - 24.1 °F 38% 30.51 in 10.0 mi NNE 8.1 mph - N/A   Mostly Cloudy
8:53 PM 39.0 °F 34.8 °F 28.0 °F 65% 30.52 in 10.0 mi North 5.8 mph - N/A   Mostly Cloudy
9:53 PM 45.0 °F 38.5 °F 28.0 °F 52% 30.51 in 10.0 mi NNW 13.8 mph - N/A   Overcast
10:53 PM 37.0 °F 30.4 °F 28.9 °F 73% 30.50 in 10.0 mi North 9.2 mph - N/A   Clear
11:53 PM 33.1 °F 26.9 °F 28.0 °F 82% 30.48 in 10.0 mi NNW 6.9 mph - N/A   Clear